Date String (YYYY-MM-DD hh:mm:ss) UTC,Instrument flags,absolute air pressure of the measurement (hPa),sample flow rate (lpm),inlet stack bypass flow (lpm),air temperature of the measurement (°C),ambient temperature measured by the external sensor (°C),aerosol sample conditioner tube jacket temperature (°C),OPC LED temperature (°C),internal box temperature (°C),relative humidity of the measurement (%),span deviation,mass concentration of particles derived from Lorenz-Mie calculation of OPC scattering (μg/m³),mass concentration of particles derived from Lorenz-Mie calculation of OPC scattering (μg/m³),mass concentration of particles derived from Lorenz-Mie calculation of OPC scattering (μg/m³)
DateTimeUTC,F1_M11,P_M11,Q1_M11,Q2_M11,T1_M11,T2_M11,T3_M11,T4_M11,T5_M11,U1_M11,ZSPAN_M11,X2_M11,X0_M11,X1_M11
2024-02-15 01:00:00,SystemResetWarning,0827.4,5.01,000.00,022.7,022.1,000.0,031.2,024.5,15.3,0000.0,0004.19,0010.23,0003.68
2024-02-15 01:01:00,SystemResetWarning,0827.4,5.00,000.00,022.7,022.1,000.0,031.2,024.5,15.3,0000.0,0004.15,0010.57,0003.69
2024-02-15 01:02:00,SystemResetWarning,0827.4,4.99,000.00,022.7,022.1,000.0,031.2,024.5,15.3,0000.0,0004.17,0010.28,0003.70
2024-02-15 01:03:00,SystemResetWarning,0827.4,5.00,000.00,022.7,022.1,000.0,031.2,024.5,15.3,0000.0,0004.18,0011.27,0003.70
2024-02-15 01:04:00,SystemResetWarning,0827.4,5.00,000.00,022.7,022.1,000.0,031.2,024.5,15.3,0000.0,0004.17,0011.20,0003.71
2024-02-15 01:05:00,SystemResetWarning,0827.4,5.00,000.00,022.7,022.1,000.0,031.2,024.5,15.2,0000.0,0004.18,0010.93,0003.72
2024-02-15 01:06:00,SystemResetWarning,0827.4,5.00,000.00,022.7,022.1,000.0,031.2,024.5,15.1,0000.0,0004.14,0010.86,0003.70
2024-02-15 01:07:00,SystemResetWarning,0827.4,5.00,000.00,022.7,022.1,000.0,031.2,024.5,15.1,0000.0,0004.12,0010.16,0003.71
2024-02-15 01:08:00,SystemResetWarning,0827.6,5.00,000.00,022.7,022.1,000.0,031.2,024.5,15.1,0000.0,0004.17,0010.92,0003.71
2024-02-15 01:09:00,SystemResetWarning,0827.9,5.00,000.00,022.7,022.1,000.0,031.2,024.6,15.1,0000.0,0004.20,0011.33,0003.71
2024-02-15 01:10:00,SystemResetWarning,0827.9,5.01,000.00,022.7,022.1,000.0,031.1,024.5,15.0,0000.0,0004.20,0011.70,0003.71
2024-02-15 01:11:00,SystemResetWarning,0827.9,5.01,000.00,022.7,022.1,000.0,031.1,024.5,15.0,0000.0,0004.18,0011.69,0003.72
2024-02-15 01:12:00,SystemResetWarning,0827.9,5.00,000.00,022.7,022.1,000.0,031.1,024.5,15.0,0000.0,0004.19,0011.33,0003.72
2024-02-15 01:13:00,SystemResetWarning,0828.0,5.00,000.00,022.7,022.1,000.0,031.1,024.5,14.8,0000.0,0004.18,0011.00,0003.72
2024-02-15 01:14:00,SystemResetWarning,0828.0,4.99,000.00,022.7,022.1,000.0,031.1,024.5,14.8,0000.0,0004.15,0010.03,0003.71
2024-02-15 01:15:00,SystemResetWarning,0827.9,5.00,000.00,022.7,022.1,000.0,031.1,024.5,14.9,0000.0,0004.14,0009.33,0003.71
2024-02-15 01:16:00,SystemResetWarning,0827.8,5.00,000.00,022.7,022.1,000.0,031.1,024.5,14.9,0000.0,0004.13,0009.37,0003.70
2024-02-15 01:17:00,SystemResetWarning,0827.8,5.00,000.00,022.7,022.1,000.0,031.1,024.5,14.8,0000.0,0004.12,0009.32,0003.70
2024-02-15 01:18:00,SystemResetWarning,0827.5,5.00,000.00,022.7,022.1,000.0,031.1,024.5,14.8,0000.0,0004.10,0009.34,0003.69
2024-02-15 01:19:00,SystemResetWarning,0827.4,4.99,000.00,022.7,022.1,000.0,031.1,024.5,14.8,0000.0,0004.06,0008.91,0003.67
2024-02-15 01:20:00,SystemResetWarning,0827.4,5.00,000.00,022.7,022.1,000.0,031.2,024.6,14.8,0000.0,0004.01,0008.08,0003.66
2024-02-15 01:21:00,SystemResetWarning,0827.4,5.00,000.00,022.7,022.1,000.0,031.2,024.6,14.7,0000.0,0004.00,0008.18,0003.65
2024-02-15 01:22:00,SystemResetWarning,0827.4,5.00,000.00,022.7,022.1,000.0,031.2,024.5,14.7,0000.0,0003.99,0008.53,0003.63
2024-02-15 01:23:00,SystemResetWarning,0828.0,5.00,000.00,022.7,022.1,000.0,031.1,024.5,14.8,0000.0,0003.99,0008.49,0003.61
2024-02-15 01:24:00,SystemResetWarning,0827.5,5.00,000.00,022.7,022.2,000.0,031.1,024.5,14.9,0000.0,0003.98,0008.47,0003.61
2024-02-15 01:25:00,SystemResetWarning,0827.5,5.00,000.00,022.7,022.2,000.0,031.1,024.5,14.8,0000.0,0003.97,0008.52,0003.60
2024-02-15 01:26:00,SystemResetWarning,0827.6,5.01,000.00,022.7,022.2,000.0,031.2,024.6,14.9,0000.0,0003.97,0008.92,0003.60
2024-02-15 01:27:00,SystemResetWarning,0827.6,5.00,000.00,022.7,022.2,000.0,031.2,024.6,15.0,0000.0,0003.98,0010.02,0003.58
2024-02-15 01:28:00,SystemResetWarning,0827.5,4.99,000.00,022.7,022.1,000.0,031.2,024.5,15.0,0000.0,0004.01,0010.30,0003.58
2024-02-15 01:29:00,SystemResetWarning,0827.9,4.99,000.00,022.7,022.1,000.0,031.2,024.5,14.9,0000.0,0004.02,0010.44,0003.58
2024-02-15 01:30:00,SystemResetWarning,0827.5,5.00,000.00,022.7,022.1,000.0,031.2,024.5,14.9,0000.0,0004.02,0010.39,0003.57
2024-02-15 01:31:00,SystemResetWarning,0827.5,4.99,000.00,022.7,022.1,000.0,031.2,024.5,14.9,0000.0,0004.02,0010.36,0003.58
2024-02-15 01:32:00,SystemResetWarning,0827.5,5.00,000.00,022.7,022.1,000.0,031.2,024.5,15.0,0000.0,0004.02,0010.34,0003.59
2024-02-15 01:33:00,SystemResetWarning,0827.5,5.00,000.00,022.7,022.1,000.0,031.2,024.5,15.2,0000.0,0004.01,0011.33,0003.59
2024-02-15 01:34:00,SystemResetWarning,0827.5,5.01,000.00,022.7,022.1,000.0,031.2,024.5,15.4,0000.0,0003.99,0011.61,0003.58
2024-02-15 01:35:00,SystemResetWarning,0827.5,5.01,000.00,022.6,022.0,000.0,031.1,024.5,15.6,0000.0,0003.96,0011.51,0003.57
2024-02-15 01:36:00,SystemResetWarning,0827.6,5.00,000.00,022.6,022.0,000.0,031.1,024.4,15.7,0000.0,0003.96,0011.36,0003.57
2024-02-15 01:37:00,SystemResetWarning,0827.7,4.99,000.00,022.6,022.0,000.0,031.1,024.4,15.8,0000.0,0003.93,0010.84,0003.55
2024-02-15 01:38:00,SystemResetWarning,0827.7,5.00,000.00,022.6,022.0,000.0,031.1,024.4,15.9,0000.0,0003.88,0009.82,0003.54
2024-02-15 01:39:00,SystemResetWarning,0827.7,4.99,000.00,022.6,022.0,000.0,031.1,024.4,15.8,0000.0,0003.84,0009.69,0003.53
2024-02-15 01:40:00,SystemResetWarning,0827.7,5.00,000.00,022.6,021.9,000.0,031.1,024.4,15.8,0000.0,0003.83,0009.76,0003.53
2024-02-15 01:41:00,SystemResetWarning,0827.7,4.99,000.00,022.6,021.9,000.0,031.1,024.3,15.9,0000.0,0003.81,0009.93,0003.53
2024-02-15 01:42:00,SystemResetWarning,0827.7,4.99,000.00,022.6,021.9,000.0,031.1,024.4,15.9,0000.0,0003.80,0010.06,0003.51
2024-02-15 01:43:00,SystemResetWarning,0827.7,5.01,000.00,022.6,021.9,000.0,031.1,024.3,16.0,0000.0,0003.78,0009.46,0003.49
2024-02-15 01:44:00,SystemResetWarning,0827.7,5.01,000.00,022.5,021.9,000.0,031.1,024.3,16.1,0000.0,0003.79,0008.15,0003.49
2024-02-15 01:45:00,SystemResetWarning,0827.8,5.00,000.00,022.5,021.9,000.0,031.1,024.3,16.2,0000.0,0003.83,0007.90,0003.50
2024-02-15 01:46:00,SystemResetWarning,0827.8,5.00,000.00,022.5,021.9,000.0,031.1,024.3,16.2,0000.0,0003.87,0007.99,0003.51
2024-02-15 01:47:00,SystemResetWarning,0827.8,4.98,000.00,022.5,021.9,000.0,031.1,024.3,16.0,0000.0,0003.88,0008.18,0003.50
2024-02-15 01:48:00,SystemResetWarning,0827.8,5.00,000.00,022.5,021.9,000.0,031.1,024.3,16.2,0000.0,0003.88,0008.25,0003.48
2024-02-15 01:49:00,SystemResetWarning,0827.8,5.00,000.00,022.5,021.9,000.0,031.1,024.3,16.4,0000.0,0003.90,0008.00,0003.47
2024-02-15 01:50:00,SystemResetWarning,0827.8,5.00,000.00,022.5,021.8,000.0,031.0,024.2,16.5,0000.0,0003.90,0007.80,0003.47
2024-02-15 01:51:00,SystemResetWarning,0828.0,5.00,000.00,022.4,021.8,000.0,031.0,024.2,16.5,0000.0,0003.88,0007.78,0003.44
2024-02-15 01:52:00,SystemResetWarning,0828.0,5.01,000.00,022.4,021.8,000.0,031.0,024.2,16.4,0000.0,0003.88,0007.59,0003.42
2024-02-15 01:53:00,SystemResetWarning,0828.1,5.01,000.00,022.4,021.8,000.0,031.0,024.2,16.5,0000.0,0003.87,0007.58,0003.42
2024-02-15 01:54:00,SystemResetWarning,0828.1,5.01,000.00,022.4,021.8,000.0,031.0,024.2,16.6,0000.0,0003.87,0008.02,0003.41
2024-02-15 01:55:00,SystemResetWarning,0828.1,5.00,000.00,022.4,021.8,000.0,031.0,024.2,16.7,0000.0,0003.88,0008.10,0003.40
2024-02-15 01:56:00,SystemResetWarning,0827.9,4.99,000.00,022.4,021.8,000.0,031.0,024.2,16.7,0000.0,0003.85,0008.28,0003.39
2024-02-15 01:57:00,SystemResetWarning,0827.8,5.00,000.00,022.4,021.8,000.0,031.0,024.2,16.6,0000.0,0003.83,0008.33,0003.37
2024-02-15 01:58:00,SystemResetWarning,0827.8,5.00,000.00,022.4,021.8,000.0,031.0,024.2,16.2,0000.0,0003.83,0008.26,0003.37
2024-02-15 01:59:00,SystemResetWarning,0827.8,5.00,000.00,022.4,021.7,000.0,030.9,024.2,16.0,0000.0,0003.83,0008.14,0003.37
